ARIANE 40 R/B

Last updated on Wed Jul 02 2025 00:02:14 GMT+0000 (Coordinated Universal Time)

1 22830U 93061H 25182.22165772 .00000163 00000+0 75864-4 0 9997 2 22830 98.5263 250.5656 0009728 312.7382 47.2983 14.32670975658096
UTC large
Height (km)
Speed (km/s)
/
Latitude / Longitude
Inclination (degrees)
Orbital Period (minutes)
Azimuth
Elevation
Range (km)
Doppler Factor

Next 0 passes for location: London (51.5072 / 0.1276)

Sorry there are no passes over London.